Other Public Products
Issued by NWS Grand Forks, ND

Home | Current Version | Previous Version | Graphics & Text | Print | Product List | Glossary On
Versions: 1 2 3 4 5 6 7 8 9 10 11 12 13 14 15 16 17 18 19 20 21 22 23 24 25 26 27 28 29 30 31 32 33 34 35 36 37 38 39 40 41 42 43 44 45 46 47 48 49 50
000
FPUS83 KFGF 251510
OPUFGF
PRAIRIE TO PINES WEATHER ROUNDUP
NATIONAL WEATHER SERVICE EASTERN NORTH DAKOTA/GRAND FORKS ND
1000 AM CDT THU AUG 25 2016

 **SATELLITE DATA USED TO AUGMENT SKY COVER AT AUTOMATED STATIONS**
 *****  WEATHER ACROSS EASTERN NORTH DAKOTA  *****

CITY           SKY/WX    TMP DP  RH WIND       PRES   REMARKS
GRAND FORKS    CLOUDY    60  54  80 NW15      29.98R
GRAND FORKS AF CLOUDY    60  52  74 N13       29.99R
GRAND CITY NWS NOT AVBL
BUXTON           N/A     43  60 100 NW10        N/A
DEVILS LAKE    CLOUDY    58  52  80 N16       30.06R
FARGO          CLOUDY    63  53  70 W18G28    30.00F
WAHPETON ARPT  CLOUDY    59  50  72 W13G20    30.04S
$$

 *****  WEATHER ACROSS CENTRAL AND WESTERN NORTH DAKOTA  *****

CITY           SKY/WX    TMP DP  RH WIND       PRES   REMARKS
JAMESTOWN      CLOUDY    58  53  84 NW17      30.07R
BISMARCK       CLOUDY    56  51  84 NW13      30.16R
MINOT          CLOUDY    60  52  74 W12       30.13R
MINOT AFB      PTSUNNY   59  52  76 NW14      30.12R
GARRISON         N/A     60  49  66 N12       30.16R
WILLISTON      SUNNY     62  47  57 W13       30.20R
DICKINSON      CLOUDY    52  46  80 NW12      30.22R
HETTINGER      CLOUDY    54  45  71 NW16G23   30.24R
$$

 *****  OTHER OBSERVATIONS NORTHEAST NORTH DAKOTA  *****

CITY           SKY/WX    TMP DP  RH WIND       PRES   REMARKS
WALHALLA       NOT AVBL
LANGDON        CLOUDY    61  54  77 NW20      30.03R
CAVALIER       CLOUDY    61  52  72 NW20      29.99R
GRAFTON        CLOUDY    61  54  77 NW20G26   29.99R
CANDO          NOT AVBL
FORT TOTTEN      N/A     59  53  81 N7        29.95S
ROLLA          PTSUNNY   57  54  88 NW13G18   30.08S
RUGBY          NOT AVBL
 ***** THE ABOVE OBSERVATIONS ARE NON NWS ARE NOT QUALITY
        CONTROLLED AND MAY MIS-REPORT RAIN FOR SNOW...
$$

 *****  OTHER OBSERVATIONS SOUTHEAST NORTH DAKOTA *****

CITY           SKY/WX    TMP DP  RH WIND       PRES   REMARKS
COOPERSTOWN    NOT AVBL
VALLEY CITY    CLOUDY    59  55  88 NW22      30.07R
OAKES            N/A    N/A N/A N/A MISG        N/A
GWINNER        FAIR      63  54  72 W18       30.07R
SHEYENNE NWR     N/A     62  52  70 NW14      29.95
BUFFALO          N/A     59  52  78 W18         N/A
WYNDMERE       NOT AVBL
 ***** THE ABOVE OBSERVATIONS ARE NON NWS ARE NOT QUALITY
       CONTROLLED AND MAY MIS-REPORT RAIN FOR SNOW...
$$

  *****  WEATHER ACROSS NORTHERN MINNESOTA  *****

CITY           SKY/WX    TMP DP  RH WIND       PRES   REMARKS
FLAG ISLAND    CLOUDY    61  55  82 W5        29.84R
WARROAD        CLOUDY    57  54  88 W8        29.88R FOG
ROSEAU         PTSUNNY   61  55  82 NW9G17    29.88R
HALLOCK        CLOUDY    55  55 100 NW15G21   29.95R FOG
THF RVR FALLS  CLOUDY    58  56  93 NW13      29.95R
HALSTAD          N/A     62  55  78 NW15        N/A
FOSSTON        CLOUDY    55  54  94 W12G22    29.96S
BAUDETTE       CLOUDY    60  54  80 SW9       29.87R
WASKISH        CLOUDY    61  55  82 W18       29.90S
CROOKSTON      LGT RAIN  57  57 100 NW21G26   29.97R
$$
  *****  WEATHER ACROSS CENTRAL AND WEST MINNESOTA  *****

CITY           SKY/WX    TMP DP  RH WIND       PRES   REMARKS
BEMIDJI        CLOUDY    58  52  83 W16       29.95R
PARK RAPIDS    CLOUDY    59  52  77 W18       29.98S
WADENA         NOT AVBL
DETROIT LAKES  CLOUDY    59  52  77 W13G20    30.01S
MOORHEAD       CLOUDY    61  54  77 W14       30.02R
FERGUS FALLS   CLOUDY    57  55  94 W10G21    30.05S
ELBOW LAKE     CLOUDY    58  52  81 NW16G22   30.05S
MORRIS MN      PTSUNNY   61  54  77 NW15G21   30.05S
STAPLES        CLOUDY    57  52  82 W14       30.01S
WHEATON        NOT AVBL
$$
  *****  WEATHER ELSEWHERE ACROSS MINNESOTA  *****

CITY           SKY/WX    TMP DP  RH WIND       PRES   REMARKS
DULUTH         MOSUNNY   68  54  60 W17G24    29.94S
INTRNTL FALLS    N/A     58  54  86 W13       29.88R
ELY            MOSUNNY   64  54  68 W10       29.90S
CLOQUET        SUNNY     64  52  63 SW12G21   29.95S
BRAINERD       PTSUNNY   60  52  74 W13G20    30.00S
HIBBING        PTSUNNY   61  54  77 W10G16    29.93S
ALEXANDRIA     CLOUDY    59  50  72 W20       30.05S
SAINT CLOUD    SUNNY     64  54  69 W15G23    30.02S
MINNEAPOLIS    MOSUNNY   70  56  61 NW13      30.03R
$$

  *****  WEATHER ACROSS SOUTH DAKOTA  *****

CITY           SKY/WX    TMP DP  RH WIND       PRES   REMARKS
SIOUX FALLS    CLOUDY    61  53  75 NW13      30.15R
BROOKINGS      MOSUNNY   58  52  80 NW13      30.13R
WATERTOWN      MOSUNNY   61  51  70 NW13      30.12R
HURON          MOSUNNY   61  50  67 NW13      30.16R
SISSETON         N/A     61  51  70 NW20      30.07R
ABERDEEN       PTSUNNY   63  50  62 NW14      30.12S
MITCHELL       CLOUDY    60  52  74 NW8       30.18R
PIERRE         MOSUNNY   61  48  62 NW15      30.21R
MOBRIDGE       MOSUNNY   61  47  59 NW17      30.15R
RAPID CITY     CLOUDY    58  43  57 N14       30.30R
$$

  *****  SOME WEATHER IN NEARBY STATES *****

CITY           SKY/WX    TMP DP  RH WIND       PRES   REMARKS
GLASGOW MT     MOSUNNY   57  45  64 W9        30.23R
GREAT FALLS MT SUNNY     53  39  59 SW3       30.29S
CHEYENNE WY    CLOUDY    49  43  80 N13       30.35R
SCOTTSBLUFF NE CLOUDY    58  44  60 NE10      30.33R
OMAHA NE       CLOUDY    62  58  86 CALM      30.14R
DES MOINES IA  CLOUDY    71  62  73 N6        30.10R
DAVENPORT IA   CLOUDY    73  63  70 NE8       30.06R
CHICAGO IL     CLOUDY    74  69  85 NW9       30.00R
EAU CLAIRE WI  SUNNY     72  60  66 SW9       30.00F
LA CROSSE WI   SUNNY     72 N/A N/A SE3       30.04R
$$

  *****  SOME NATIONAL WEATHER *****

CITY           SKY/WX    TMP DP  RH WIND       PRES   REMARKS
LA GUARDIA NY  PTSUNNY   82  61  48 SW13G21   30.09F
RALEIGH NC     MOSUNNY   83  63  50 SW8       30.19S
ATLANTA GA     MOSUNNY   83  71  67 VRB3      30.22S
NEW ORLEANS LA MOSUNNY   88  78  72 NE9       30.10S HX 101
OKLAHOMA CITY  MOSUNNY   83  69  62 SW9       30.09S
ALBUQUERQUE NM PTSUNNY   64  50  60 N6        30.27R
SALT LAKE CITY PTSUNNY   65  32  29 SE7       30.10S
LOS ANGELES CA PTSUNNY   67  60  78 CALM      29.96S
BOISE ID       SUNNY     66  34  30 SE12      30.13R
SEATTLE WA     MOSUNNY   66  54  65 CALM      30.15R
$$

*** WEATHER ACROSS MANITOBA...SASKATCHEWAN AND ONTARIO ***
                ***ONTARIO***

CITY           SKY/WX    TMP DP  RH WIND       PRES   REMARKS
GERALDTON      MOSUNNY   68  64  88 SW9       29.79F
THUNDER BAY    MOSUNNY   72  57  60 W9        29.84F
SIOUX LOOKOUT  PTSUNNY   64  57  77 W6        29.80S
TORONTO        PTSUNNY   82  70  65 W17       29.94R
BIG TROUT LK   CLOUDY    55  48  76 W3        29.88S
PICKLE LAKE    LGT RAIN  52  50  93 NE10      29.84S
DRYDEN         CLOUDY    63  57  82 W9        29.81S
KENORA         CLOUDY    61  55  82 W7        29.84R
$$
                *** MANITOBA***

CITY           SKY/WX    TMP DP  RH WIND       PRES   REMARKS
BRANDON        PTSUNNY   59  54  82 NW13G18   30.06R
DAUPHIN        SUNNY     61  52  72 N8        30.04R
ISLAND LAKE    MOSUNNY   59  50  72 W6        29.93S
PILOT MOUND      N/A     57  54  88 NW12        N/A
THE PAS        MOSUNNY   61  54  77 W8        30.00S
THOMPSON       MOSUNNY   64  54  68 VRB2      29.92S
WINNIPEG       NOT AVBL
LYNN LAKE      PTSUNNY   66  54  63 MISG      29.94S
CHURCHILL      PTSUNNY   55  52  88 NW9       29.82S
GILLAM         MOSUNNY   61  48  63 NW5       29.87F
$$
                ***SASKATCHEWAN***

CITY           SKY/WX    TMP DP  RH WIND       PRES   REMARKS
ESTEVAN        MOSUNNY   61  50  67 NW9       30.15S
KINDERSLEY     CLOUDY    55  52  88 NW7       30.17R
LLOYDMINSTER   PTSUNNY   57  54  88 NW8       30.12S
PRINCE ALBERT  MOSUNNY   57  50  77 W3        30.08F
REGINA         MOSUNNY   55  50  82 W6        30.15S
YORKTON        SUNNY     59  52  77 NW9       30.08S  C1F1C2F2C3F3C4F4C5F5C6F6C7F7C8F8C9F9CaFaCbFbCcFcCdFdCe!



USA.gov is the U.S. government's official web portal to all federal, state and local government web resources and services.